Aérodrome :
LOGIN :

S'inscrire | Disclaimer

   EN    FR    IT 

 










Légende :    VFR   VFR Marginal   IFR   IFR Intensif   IFR Très Intensif
Visi : 
Plafond : 
>= 8 km
>= 3000ft
5 à 8 km
1000 à 3000 ft
1500m à 5 km
500 à 1000 ft
800 à 1500m
200 à 500 ft
< 800m
< 200 ft
Symboles :   Orages  Brouillard  Fortes neiges  Fortes précipitations  Vent > 20 kt
SIGMETs :   Divers  Orages  Givrage  Turbulence  Onde Orograph.  Cendres Volcan.







- Altitude de l'aérodrome : 388 ft
- Code IATA : QYR
- Voir les cartes d'approche


LFQB - Troyes Barberey

DERNIER METAR :
  • 200930Z AUTO 05007KT 360V100 9999 ////// 18/11 Q1019

METARs EXPIRÉS :
  • 200900Z AUTO 06005KT 340V090 9999 ////// 17/11 Q1020
  • 200830Z AUTO 04003KT 340V090 9999 ////// 17/10 Q1020
  • 200800Z AUTO 03004KT 350V070 9999 ////// 15/09 Q1020
  • 200730Z AUTO VRB01KT 9999 ////// 14/09 Q1020
  • 200700Z AUTO VRB03KT 9999 ////// 12/09 Q1020

TAF N/A
Pas de NOTAMs connus pour ce terrain.



MET'MAP, la Météo Aéronautique d'un coup d'oeil ! - Copyright ORBIFLY Décembre 2007 - Disclaimer

ORBIFLY MET'MAP TEAM :

Programmation & Développement : Alexandra Zaïnal
Conception & Développement : Baudouin d'Aumeries
Co-Programmation & Développement : Marc-Olivier Méhu
Soutien technique & logistique : Manuel Goepfert

Contact : metmap@orbifly.com




SOURCES & CREDITS :

   NOAA